Time,TemperatureF,DewpointF,PressureIn,WindDirection,WindDirectionDegrees,WindSpeedMPH,WindSpeedGustMPH,Humidity,HourlyPrecipIn,Conditions,Clouds,dailyrainin,SoftwareType,DateUTC
2013-03-02 00:02:00,33.8,32.0,29.96,NNW,346,0.0,-999.0,94,-99.99,,,0.12,weatherlink.com 1.10,2013-03-02 05:02:00,
2013-03-02 00:17:00,33.8,32.0,29.96,North,355,0.0,-999.0,94,-99.99,,,0.12,weatherlink.com 1.10,2013-03-02 05:17:00,
2013-03-02 00:32:00,33.8,32.0,29.96,NNW,348,3.0,-999.0,94,-99.99,,,0.12,weatherlink.com 1.10,2013-03-02 05:32:00,
2013-03-02 00:47:00,33.7,32.0,29.96,NE,42,2.0,-999.0,94,-99.99,,,0.12,weatherlink.com 1.10,2013-03-02 05:47:00,
2013-03-02 01:02:00,33.6,32.0,29.96,NNE,29,4.0,-999.0,94,-99.99,,,0.12,weatherlink.com 1.10,2013-03-02 06:02:00,
2013-03-02 01:17:00,33.5,32.0,29.96,NNE,22,3.0,-999.0,94,-99.99,,,0.00,weatherlink.com 1.10,2013-03-02 06:17:00,
2013-03-02 01:32:00,33.1,31.0,29.96,NE,42,1.0,-999.0,93,-99.99,,,0.00,weatherlink.com 1.10,2013-03-02 06:32:00,
2013-03-02 01:47:00,32.6,31.0,29.96,NE,46,4.0,-999.0,93,-99.99,,,0.00,weatherlink.com 1.10,2013-03-02 06:47:00,
2013-03-02 02:02:00,32.5,31.0,29.96,NE,34,0.0,-999.0,92,-99.99,,,0.00,weatherlink.com 1.10,2013-03-02 07:02:00,
2013-03-02 02:17:00,32.4,30.0,29.97,NE,49,0.0,-999.0,92,-99.99,,,0.00,weatherlink.com 1.10,2013-03-02 07:17:00,
2013-03-02 02:32:00,32.3,30.0,29.97,NE,40,2.0,-999.0,92,-99.99,,,0.00,weatherlink.com 1.10,2013-03-02 07:32:00,
2013-03-02 02:47:00,32.2,30.0,29.96,NE,41,1.0,-999.0,91,-99.99,,,0.00,weatherlink.com 1.10,2013-03-02 07:47:00,
2013-03-02 03:02:00,32.0,30.0,29.96,NNE,21,5.0,-999.0,91,-99.99,,,0.00,weatherlink.com 1.10,2013-03-02 08:02:00,
2013-03-02 03:17:00,31.9,30.0,29.96,NNE,29,3.0,-999.0,91,-99.99,,,0.00,weatherlink.com 1.10,2013-03-02 08:17:00,
2013-03-02 03:32:00,31.9,30.0,29.95,NE,36,3.0,-999.0,91,-99.99,,,0.00,weatherlink.com 1.10,2013-03-02 08:32:00,
2013-03-02 03:47:00,31.7,29.0,29.95,NE,36,0.0,-999.0,91,-99.99,,,0.00,weatherlink.com 1.10,2013-03-02 08:47:00,
2013-03-02 04:02:00,31.7,29.0,29.95,NE,36,0.0,-999.0,91,-99.99,,,0.00,weatherlink.com 1.10,2013-03-02 09:02:00,
2013-03-02 04:17:00,31.5,29.0,29.95,NE,36,1.0,-999.0,91,-99.99,,,0.00,weatherlink.com 1.10,2013-03-02 09:17:00,
2013-03-02 04:32:00,31.5,30.0,29.96,NE,36,2.0,-999.0,92,-99.99,,,0.00,weatherlink.com 1.10,2013-03-02 09:32:00,
2013-03-02 04:47:00,31.4,29.0,29.96,NE,36,0.0,-999.0,92,-99.99,,,0.00,weatherlink.com 1.10,2013-03-02 09:47:00,
2013-03-02 05:02:00,31.4,29.0,29.96,NE,36,3.0,-999.0,92,-99.99,,,0.00,weatherlink.com 1.10,2013-03-02 10:02:00,
2013-03-02 05:17:00,31.4,29.0,29.96,NE,36,2.0,-999.0,91,-99.99,,,0.00,weatherlink.com 1.10,2013-03-02 10:17:00,
2013-03-02 05:32:00,31.4,29.0,29.96,NE,36,0.0,-999.0,91,-99.99,,,0.00,weatherlink.com 1.10,2013-03-02 10:32:00,
2013-03-02 05:47:00,31.4,29.0,29.96,NE,36,2.0,-999.0,91,-99.99,,,0.00,weatherlink.com 1.10,2013-03-02 10:47:00,
2013-03-02 06:02:00,31.5,29.0,29.97,NNW,342,0.0,-999.0,91,-99.99,,,0.00,weatherlink.com 1.10,2013-03-02 11:02:00,
2013-03-02 06:17:00,31.5,29.0,29.97,North,360,1.0,-999.0,90,-99.99,,,0.00,weatherlink.com 1.10,2013-03-02 11:17:00,
2013-03-02 06:32:00,31.4,29.0,29.97,North,360,0.0,-999.0,90,-99.99,,,0.00,weatherlink.com 1.10,2013-03-02 11:32:00,
2013-03-02 06:47:00,31.3,29.0,29.97,North,360,2.0,-999.0,90,-99.99,,,0.00,weatherlink.com 1.10,2013-03-02 11:47:00,
2013-03-02 07:02:00,30.9,28.0,29.97,NW,323,3.0,-999.0,89,-99.99,,,0.00,weatherlink.com 1.10,2013-03-02 12:02:00,
2013-03-02 07:17:00,30.6,28.0,29.98,NW,323,1.0,-999.0,89,-99.99,,,0.00,weatherlink.com 1.10,2013-03-02 12:17:00,
2013-03-02 07:32:00,30.3,27.0,29.98,North,5,2.0,-999.0,87,-99.99,,,0.00,weatherlink.com 1.10,2013-03-02 12:32:00,
2013-03-02 07:47:00,30.2,27.0,29.99,North,5,0.0,-999.0,88,-99.99,,,0.00,weatherlink.com 1.10,2013-03-02 12:47:00,
2013-03-02 08:02:00,30.3,27.0,29.99,North,5,3.0,-999.0,87,-99.99,,,0.00,weatherlink.com 1.10,2013-03-02 13:02:00,
2013-03-02 08:17:00,30.6,27.0,29.99,North,5,0.0,-999.0,87,-99.99,,,0.00,weatherlink.com 1.10,2013-03-02 13:17:00,
2013-03-02 08:32:00,30.7,27.0,30.00,West,278,3.0,-999.0,87,-99.99,,,0.00,weatherlink.com 1.10,2013-03-02 13:32:00,
2013-03-02 08:47:00,30.7,27.0,30.00,NW,323,2.0,-999.0,87,-99.99,,,0.00,weatherlink.com 1.10,2013-03-02 13:47:00,
2013-03-02 09:03:00,30.7,28.0,30.00,NW,323,1.0,-999.0,88,-99.99,,,0.00,weatherlink.com 1.10,2013-03-02 14:03:00,
2013-03-02 09:18:00,30.8,28.0,30.00,NW,323,0.0,-999.0,89,-99.99,,,0.00,weatherlink.com 1.10,2013-03-02 14:18:00,
2013-03-02 09:33:00,30.6,28.0,30.00,ENE,61,5.0,-999.0,88,-99.99,,,0.00,weatherlink.com 1.10,2013-03-02 14:33:00,
2013-03-02 09:48:00,30.3,27.0,30.01,North,360,0.0,-999.0,87,-99.99,,,0.00,weatherlink.com 1.10,2013-03-02 14:48:00,
2013-03-02 10:03:00,30.1,27.0,30.01,NNE,26,8.0,-999.0,87,-99.99,,,0.00,weatherlink.com 1.10,2013-03-02 15:03:00,
2013-03-02 10:18:00,29.7,26.0,30.01,North,355,1.0,-999.0,86,-99.99,,,0.00,weatherlink.com 1.10,2013-03-02 15:18:00,
2013-03-02 10:33:00,29.7,26.0,30.02,NNE,18,3.0,-999.0,87,-99.99,,,0.00,weatherlink.com 1.10,2013-03-02 15:33:00,
2013-03-02 10:48:00,29.8,26.0,30.02,NNE,19,5.0,-999.0,86,-99.99,,,0.00,weatherlink.com 1.10,2013-03-02 15:48:00,
2013-03-02 11:03:00,29.8,26.0,30.02,NNE,22,3.0,-999.0,84,-99.99,,,0.00,weatherlink.com 1.10,2013-03-02 16:03:00,
2013-03-02 11:18:00,30.0,26.0,30.02,NE,35,4.0,-999.0,84,-99.99,,,0.00,weatherlink.com 1.10,2013-03-02 16:18:00,
2013-03-02 11:33:00,30.8,27.0,30.03,NNE,30,4.0,-999.0,84,-99.99,,,0.00,weatherlink.com 1.10,2013-03-02 16:33:00,
2013-03-02 11:48:00,30.7,26.0,30.03,North,355,3.0,-999.0,81,-99.99,,,0.00,weatherlink.com 1.10,2013-03-02 16:48:00,
2013-03-02 12:03:00,30.8,26.0,30.02,NNW,342,7.0,-999.0,82,-99.99,,,0.00,weatherlink.com 1.10,2013-03-02 17:03:00,
2013-03-02 12:18:00,30.8,26.0,30.03,North,9,0.0,-999.0,82,-99.99,,,0.00,weatherlink.com 1.10,2013-03-02 17:18:00,
2013-03-02 12:33:00,31.0,26.0,30.03,North,360,3.0,-999.0,81,-99.99,,,0.00,weatherlink.com 1.10,2013-03-02 17:33:00,
2013-03-02 12:48:00,31.1,26.0,30.02,NNW,347,4.0,-999.0,82,-99.99,,,0.00,weatherlink.com 1.10,2013-03-02 17:48:00,
2013-03-02 13:03:00,30.8,27.0,30.02,North,5,3.0,-999.0,84,-99.99,,,0.01,weatherlink.com 1.10,2013-03-02 18:03:00,
2013-03-02 13:18:00,30.8,26.0,30.02,NW,309,3.0,-999.0,82,-99.99,,,0.01,weatherlink.com 1.10,2013-03-02 18:18:00,
2013-03-02 13:33:00,31.2,26.0,30.01,NW,313,8.0,-999.0,80,-99.99,,,0.01,weatherlink.com 1.10,2013-03-02 18:33:00,
2013-03-02 13:48:00,31.6,26.0,30.00,North,350,3.0,-999.0,80,-99.99,,,0.01,weatherlink.com 1.10,2013-03-02 18:48:00,
2013-03-02 14:03:00,31.8,26.0,30.00,NW,319,6.0,-999.0,79,-99.99,,,0.02,weatherlink.com 1.10,2013-03-02 19:03:00,
2013-03-02 14:18:00,31.7,26.0,30.01,North,355,2.0,-999.0,79,-99.99,,,0.03,weatherlink.com 1.10,2013-03-02 19:18:00,
2013-03-02 14:33:00,31.5,26.0,30.01,NW,312,5.0,-999.0,81,-99.99,,,0.03,weatherlink.com 1.10,2013-03-02 19:33:00,
2013-03-02 14:48:00,31.3,26.0,30.01,NW,304,6.0,-999.0,81,-99.99,,,0.04,weatherlink.com 1.10,2013-03-02 19:48:00,
2013-03-02 15:03:00,31.1,26.0,30.01,NNW,336,4.0,-999.0,80,-99.99,,,0.04,weatherlink.com 1.10,2013-03-02 20:03:00,
2013-03-02 15:18:00,31.2,26.0,30.01,NNW,347,0.0,-999.0,82,-99.99,,,0.04,weatherlink.com 1.10,2013-03-02 20:18:00,
2013-03-02 15:33:00,30.9,25.0,30.01,NW,312,10.0,-999.0,80,-99.99,,,0.04,weatherlink.com 1.10,2013-03-02 20:33:00,
2013-03-02 15:48:00,31.0,25.0,30.01,NW,313,6.0,-999.0,79,-99.99,,,0.04,weatherlink.com 1.10,2013-03-02 20:48:00,
2013-03-02 16:03:00,31.1,25.0,30.02,NW,315,7.0,-999.0,79,-99.99,,,0.04,weatherlink.com 1.10,2013-03-02 21:03:00,
2013-03-02 16:18:00,31.2,25.0,30.02,WNW,300,6.0,-999.0,79,-99.99,,,0.04,weatherlink.com 1.10,2013-03-02 21:18:00,
2013-03-02 16:33:00,31.5,24.0,30.02,NW,323,6.0,-999.0,74,-99.99,,,0.04,weatherlink.com 1.10,2013-03-02 21:33:00,
2013-03-02 16:48:00,31.4,25.0,30.02,NW,315,6.0,-999.0,76,-99.99,,,0.04,weatherlink.com 1.10,2013-03-02 21:48:00,
2013-03-02 17:03:00,30.8,24.0,30.02,NW,311,5.0,-999.0,77,-99.99,,,0.04,weatherlink.com 1.10,2013-03-02 22:03:00,
2013-03-02 17:18:00,30.8,25.0,30.03,NNW,342,6.0,-999.0,78,-99.99,,,0.04,weatherlink.com 1.10,2013-03-02 22:18:00,
2013-03-02 17:33:00,30.5,25.0,30.03,NNW,333,3.0,-999.0,79,-99.99,,,0.04,weatherlink.com 1.10,2013-03-02 22:33:00,
2013-03-02 17:48:00,30.5,25.0,30.04,NW,322,3.0,-999.0,79,-99.99,,,0.04,weatherlink.com 1.10,2013-03-02 22:48:00,
2013-03-02 18:03:00,30.7,25.0,30.04,NNW,327,4.0,-999.0,78,-99.99,,,0.04,weatherlink.com 1.10,2013-03-02 23:03:00,
2013-03-02 18:18:00,30.7,24.0,30.05,NW,325,5.0,-999.0,77,-99.99,,,0.04,weatherlink.com 1.10,2013-03-02 23:18:00,
2013-03-02 18:33:00,30.5,25.0,30.05,NW,319,4.0,-999.0,79,-99.99,,,0.04,weatherlink.com 1.10,2013-03-02 23:33:00,
2013-03-02 18:48:00,30.4,26.0,30.05,NW,319,3.0,-999.0,82,-99.99,,,0.04,weatherlink.com 1.10,2013-03-02 23:48:00,
2013-03-02 19:03:00,30.1,26.0,30.06,NW,318,8.0,-999.0,83,-99.99,,,0.04,weatherlink.com 1.10,2013-03-03 00:03:00,
2013-03-02 19:18:00,29.5,26.0,30.06,NW,323,4.0,-999.0,87,-99.99,,,0.04,weatherlink.com 1.10,2013-03-03 00:18:00,
2013-03-02 19:33:00,29.4,26.0,30.06,NW,318,2.0,-999.0,87,-99.99,,,0.04,weatherlink.com 1.10,2013-03-03 00:33:00,
2013-03-02 19:48:00,29.4,26.0,30.06,NW,317,4.0,-999.0,87,-99.99,,,0.04,weatherlink.com 1.10,2013-03-03 00:48:00,
2013-03-02 20:03:00,29.2,26.0,30.06,NNW,332,3.0,-999.0,87,-99.99,,,0.04,weatherlink.com 1.10,2013-03-03 01:03:00,
2013-03-02 20:19:00,29.1,26.0,30.07,NW,320,5.0,-999.0,88,-99.99,,,0.04,weatherlink.com 1.10,2013-03-03 01:19:00,
2013-03-02 20:33:00,29.1,26.0,30.07,NW,319,3.0,-999.0,89,-99.99,,,0.04,weatherlink.com 1.10,2013-03-03 01:33:00,
2013-03-02 20:48:00,29.0,26.0,30.07,NW,319,2.0,-999.0,89,-99.99,,,0.04,weatherlink.com 1.10,2013-03-03 01:48:00,
2013-03-02 21:03:00,28.9,26.0,30.07,NW,319,3.0,-999.0,89,-99.99,,,0.04,weatherlink.com 1.10,2013-03-03 02:03:00,
2013-03-02 21:18:00,28.9,26.0,30.07,NW,316,3.0,-999.0,89,-99.99,,,0.04,weatherlink.com 1.10,2013-03-03 02:18:00,
2013-03-02 21:34:00,28.8,26.0,30.08,NW,324,3.0,-999.0,88,-99.99,,,0.04,weatherlink.com 1.10,2013-03-03 02:34:00,
2013-03-02 21:48:00,28.8,26.0,30.07,NW,319,3.0,-999.0,88,-99.99,,,0.04,weatherlink.com 1.10,2013-03-03 02:48:00,
2013-03-02 22:04:00,28.6,26.0,30.07,NW,316,5.0,-999.0,88,-99.99,,,0.04,weatherlink.com 1.10,2013-03-03 03:04:00,
2013-03-02 22:19:00,28.6,25.0,30.07,NW,315,3.0,-999.0,87,-99.99,,,0.04,weatherlink.com 1.10,2013-03-03 03:19:00,
2013-03-02 22:34:00,28.4,25.0,30.07,NW,315,0.0,-999.0,86,-99.99,,,0.04,weatherlink.com 1.10,2013-03-03 03:34:00,
2013-03-02 22:49:00,28.3,25.0,30.07,NW,315,1.0,-999.0,87,-99.99,,,0.04,weatherlink.com 1.10,2013-03-03 03:49:00,
2013-03-02 23:04:00,28.4,25.0,30.07,NW,315,2.0,-999.0,86,-99.99,,,0.04,weatherlink.com 1.10,2013-03-03 04:04:00,
2013-03-02 23:19:00,28.4,25.0,30.07,NW,315,2.0,-999.0,87,-99.99,,,0.04,weatherlink.com 1.10,2013-03-03 04:19:00,
2013-03-02 23:34:00,28.4,25.0,30.07,NW,315,3.0,-999.0,87,-99.99,,,0.04,weatherlink.com 1.10,2013-03-03 04:34:00,
2013-03-02 23:49:00,28.3,25.0,30.07,NW,315,4.0,-999.0,87,-99.99,,,0.04,weatherlink.com 1.10,2013-03-03 04:49:00,